{"data":{"norad_id":61913,"epoch":"2026-09-21T10:11:51.313344Z","epoch_age_seconds":108781,"freshness":"FRESH","line1":"1 61913U 24207B   26264.42489946  .00009488  00000+0  35378-3 0  9998","line2":"2 61913  43.0016 256.6475 0000996 268.5093  91.5645 15.27589342104650","mean_motion":15.27589342,"eccentricity":9.96e-5,"inclination_deg":43.0016,"raan_deg":256.6475,"arg_perigee_deg":268.5093,"mean_anomaly_deg":91.5645,"bstar":0.00035378,"rev_number":10465,"period_min":94.26617222366,"perigee_km":482.33775152441,"apogee_km":483.70449422248,"semimajor_km":6861.1581228734,"source":"CELESTRAK","updated_at":"2026-09-22T09:00:49.448879Z"}}